Погода в Зареве

Россия / Республика Адыгея     45°00′05″N   40°04′42″E
темп.,
°C
ветер,
м/с
пор.,
м/с
влажн.,
%
обл.,
%
осадки,
мм/ч
давл.,
гПа
погр.,
м
19 мая, ср
ср1900:00+15вюв41093100 0.1 1008181
03:00+15з3694100 0.7 1008143
06:00+14зсз2698100 3.6 1009303
09:00+12зюз61397100 10.3 1013810
12:00+19юз914650 1.1 10131875
15:00+19юз1016658 1.2 10141864
18:00+17юз816675 0.0 10141469
21:00+16юз715545 0.0 1015766
20 мая, чт
чт2000:00+13юз49682 0.0 1015175
03:00+11юз388294 0.0 1015144
06:00+11ююв34795 0.0 101576
09:00+17вюв34605 0.0 1015366
12:00+22в235326 0.0 10141053
15:00+23в34520 0.0 10131187
18:00+22всв477111 0.0 1011225
21:00+16всв41085100 0.0 1011159
21 мая, пт
пт2100:00+15в512845 0.0 1010194
03:00+14в358775 0.0 100968
06:00+15вюв33735 0.0 100945
09:00+22в47624 0.0 1008259
12:00+27в56560 0.0 1007549
15:00+29в44560 0.0 1006815
18:00+27всв35785 0.0 1005168
21:00+21в349179 0.0 100645
22 мая, сб
сб2200:00+19в129043 0.0 100514
03:00+18вюв22925 0.0 100420
06:00+18в2386100 0.0 100454
09:00+23з577899 0.1 1005363
12:00+27сз466567 0.0 1006564
15:00+28сз456697 0.0 1007642
18:00+28с2272100 0.0 100785
21:00+19юз4890100 1.4 1009180
23 мая, вс
вс2300:00+18зюз41095100 0.9 1008297
03:00+18з1294100 0.9 100853
06:00+17зюз3694100 0.0 1009210
09:00+21з3480100 0.0 1010475
12:00+24зсз3470100 0.0 1010846
15:00+25сз3368100 0.0 1009899
18:00+24сз2278100 0.0 101039
21:00+20зсз2288100 0.0 101219